^^
Saratoga-Weather Station Historical Data
Daily Summary for January 18, 2022 Units:  English    Metric   Both
Daily Weekly Monthly Yearly Custom
  High: Low: Average:
Temperature: 46.6 °F 39 °F 41.5 °F
Dew Point: 41.4 °F 35.2 °F 38.1 °F
Humidity: 95% 75% 88%
Wind Speed: 9mph 0mph 2mph
Wind Gust: 12mph - -
Wind- - SSE
Pressure: 30.7 in 30.5 in -
Precipitation: 0 in    
Historical Graphs
 
 
Tabular Data for January 18, 2022
Time Temperature Dew Point Pressure Wind Wind Speed Wind Gust Humidity Rainfall Rate (Hourly) solar
00:04 39 °F 37.4 °F 30.6 in WNW 2.9 mph 3 mph 94% 0 in 0 W/m2
00:09 39 °F 37.4 °F 30.6 in Calm   1 mph 94% 0 in 0 W/m2
00:14 39 °F 37.4 °F 30.6 in SW 2 mph 2 mph 94% 0 in 0 W/m2
00:19 39 °F 37.4 °F 30.6 in West 2 mph 4 mph 94% 0 in 0 W/m2
00:24 39 °F 37.4 °F 30.6 in West 2.9 mph 7 mph 94% 0 in 0 W/m2
00:29 39.2 °F 37.9 °F 30.6 in West 0.9 mph 2 mph 95% 0 in 0 W/m2
00:34 39.2 °F 37.6 °F 30.6 in West 2 mph 6 mph 94% 0 in 0 W/m2
00:39 39 °F 37.4 °F 30.6 in WNW 2.9 mph 4 mph 94% 0 in 0 W/m2
00:44 39 °F 37.4 °F 30.6 in WNW 2 mph 4 mph 94% 0 in 0 W/m2
00:49 39 °F 37.4 °F 30.6 in West 4 mph 7 mph 94% 0 in 0 W/m2
00:54 39 °F 37.8 °F 30.6 in South 0.9 mph 6 mph 95% 0 in 0 W/m2
00:59 39 °F 37.8 °F 30.6 in WNW 0.9 mph 3 mph 95% 0 in 0 W/m2
01:04 39 °F 37.4 °F 30.6 in Calm   6 mph 94% 0 in 0 W/m2
01:09 39 °F 37.4 °F 30.6 in WNW 2 mph 7 mph 94% 0 in 0 W/m2
01:14 39 °F 37.4 °F 30.6 in WNW 2 mph 4 mph 94% 0 in 0 W/m2
01:19 39 °F 37.4 °F 30.6 in WNW 2 mph 4 mph 94% 0 in 0 W/m2
01:24 39 °F 37.4 °F 30.6 in WNW 2 mph 3 mph 94% 0 in 0 W/m2
01:29 39 °F 37.4 °F 30.6 in West 6 mph 6 mph 94% 0 in 0 W/m2
01:34 39 °F 37.8 °F 30.6 in WNW 2 mph 3 mph 95% 0 in 0 W/m2
01:39 39 °F 37.8 °F 30.6 in WNW 2 mph 4 mph 95% 0 in 0 W/m2
01:44 39 °F 37.8 °F 30.6 in West 4 mph 4 mph 95% 0 in 0 W/m2
01:49 39 °F 37.8 °F 30.6 in West 2.9 mph 4 mph 95% 0 in 0 W/m2
01:54 39.2 °F 37.9 °F 30.6 in Calm   2 mph 95% 0 in 0 W/m2
01:59 39.2 °F 37.9 °F 30.6 in Calm     95% 0 in 0 W/m2
02:04 39 °F 37.8 °F 30.6 in West 2 mph 3 mph 95% 0 in 0 W/m2
02:09 39 °F 37.8 °F 30.6 in West 2 mph 4 mph 95% 0 in 0 W/m2
02:14 39 °F 37.8 °F 30.6 in West 2 mph 4 mph 95% 0 in 0 W/m2
02:19 39.2 °F 37.9 °F 30.6 in WNW 0.9 mph 6 mph 95% 0 in 0 W/m2
02:24 39.4 °F 38.1 °F 30.6 in WNW 2 mph 4 mph 95% 0 in 0 W/m2
02:29 39.4 °F 38.1 °F 30.6 in West 4 mph 5 mph 95% 0 in 0 W/m2
02:34 39.6 °F 37.9 °F 30.6 in West 2 mph 4 mph 94% 0 in 0 W/m2
02:39 39.6 °F 38.3 °F 30.6 in West 2.9 mph 4 mph 95% 0 in 0 W/m2
02:44 39.7 °F 38.1 °F 30.6 in WNW 2.9 mph 4 mph 94% 0 in 0 W/m2
02:49 39.7 °F 38.1 °F 30.6 in West 2.9 mph 4 mph 94% 0 in 0 W/m2
02:54 39.7 °F 38.1 °F 30.6 in West 2.9 mph 4 mph 94% 0 in 0 W/m2
02:59 39.7 °F 38.1 °F 30.6 in West 4 mph 4 mph 94% 0 in 0 W/m2
03:04 39.7 °F 38.1 °F 30.6 in West 2 mph 6 mph 94% 0 in 0 W/m2
03:09 39.7 °F 38.1 °F 30.6 in WNW 0.9 mph 7 mph 94% 0 in 0 W/m2
03:14 39.7 °F 38.1 °F 30.6 in WNW 2 mph 3 mph 94% 0 in 0 W/m2
03:19 39.7 °F 38.1 °F 30.6 in West 2 mph 3 mph 94% 0 in 0 W/m2
03:24 39.7 °F 38.1 °F 30.6 in West 0.9 mph 3 mph 94% 0 in 0 W/m2
03:29 39.7 °F 38.1 °F 30.6 in West 2 mph 4 mph 94% 0 in 0 W/m2
03:34 39.7 °F 38.1 °F 30.6 in WNW 2 mph 4 mph 94% 0 in 0 W/m2
03:39 39.7 °F 38.1 °F 30.6 in West 2 mph 3 mph 94% 0 in 0 W/m2
03:44 39.9 °F 38.3 °F 30.6 in West 0.9 mph 3 mph 94% 0 in 0 W/m2
03:49 39.9 °F 38.3 °F 30.6 in West 2 mph 2 mph 94% 0 in 0 W/m2
03:54 39.9 °F 38.3 °F 30.6 in West 2 mph 3 mph 94% 0 in 0 W/m2
03:59 39.9 °F 38.3 °F 30.6 in West 2.9 mph 3 mph 94% 0 in 0 W/m2
04:04 39.9 °F 38.3 °F 30.6 in West 2 mph 4 mph 94% 0 in 0 W/m2
04:09 39.9 °F 38.3 °F 30.6 in WSW 2.9 mph 6 mph 94% 0 in 0 W/m2
04:14 39.9 °F 38.3 °F 30.6 in WNW 2.9 mph 3 mph 94% 0 in 0 W/m2
04:19 39.9 °F 38.3 °F 30.6 in West 4 mph 8 mph 94% 0 in 0 W/m2
04:24 39.9 °F 38.3 °F 30.6 in West 2 mph 6 mph 94% 0 in 0 W/m2
04:29 40.1 °F 38.5 °F 30.6 in West 2.9 mph 8 mph 94% 0 in 0 W/m2
04:34 40.1 °F 38.5 °F 30.6 in West 0.9 mph 2 mph 94% 0 in 0 W/m2
04:39 40.1 °F 38.5 °F 30.6 in WNW 2 mph 2 mph 94% 0 in 0 W/m2
04:44 40.3 °F 38.7 °F 30.6 in WNW 0.9 mph 2 mph 94% 0 in 0 W/m2
04:49 40.3 °F 38.7 °F 30.6 in WNW 2 mph 2 mph 94% 0 in 0 W/m2
04:54 40.3 °F 38.7 °F 30.6 in West 2.9 mph 3 mph 94% 0 in 0 W/m2
04:59 40.3 °F 38.7 °F 30.6 in West 2 mph 3 mph 94% 0 in 0 W/m2
05:04 40.5 °F 38.8 °F 30.6 in Calm   1 mph 94% 0 in 0 W/m2
05:09 40.5 °F 38.8 °F 30.6 in Calm   3 mph 94% 0 in 0 W/m2
05:14 40.5 °F 38.8 °F 30.6 in Calm     94% 0 in 0 W/m2
05:19 40.3 °F 38.7 °F 30.6 in Calm     94% 0 in 0 W/m2
05:24 40.3 °F 38.7 °F 30.6 in Calm     94% 0 in 0 W/m2
05:30 40.3 °F 38.7 °F 30.6 in Calm     94% 0 in 0 W/m2
05:35 40.1 °F 38.5 °F 30.6 in Calm     94% 0 in 0 W/m2
05:40 40.1 °F 38.5 °F 30.6 in Calm     94% 0 in 0 W/m2
05:45 39.9 °F 38.3 °F 30.6 in Calm   3 mph 94% 0 in 0 W/m2
05:50 39.9 °F 38.3 °F 30.6 in Calm     94% 0 in 0 W/m2
05:55 39.7 °F 38.1 °F 30.6 in Calm   2 mph 94% 0 in 0 W/m2
06:00 39.7 °F 38.1 °F 30.6 in Calm   2 mph 94% 0 in 0 W/m2
06:05 39.7 °F 38.1 °F 30.6 in Calm     94% 0 in 0 W/m2
06:10 39.7 °F 38.1 °F 30.6 in Calm   2 mph 94% 0 in 0 W/m2
06:15 39.7 °F 38.1 °F 30.6 in Calm     94% 0 in 0 W/m2
06:20 39.7 °F 38.1 °F 30.6 in Calm     94% 0 in 0 W/m2
06:25 39.7 °F 38.1 °F 30.6 in Calm     94% 0 in 0 W/m2
06:30 39.7 °F 38.5 °F 30.6 in SE 0.9 mph 2 mph 95% 0 in 0 W/m2
06:35 39.9 °F 38.7 °F 30.6 in Calm   3 mph 95% 0 in 0 W/m2
06:40 39.9 °F 38.3 °F 30.6 in Calm     94% 0 in 0 W/m2
06:45 39.9 °F 38.3 °F 30.6 in NNE 0.9 mph 3 mph 94% 0 in 0 W/m2
06:50 40.1 °F 38.8 °F 30.6 in East 2 mph 3 mph 95% 0 in 0 W/m2
06:55 40.3 °F 39 °F 30.6 in Calm     95% 0 in 0 W/m2
07:00 40.3 °F 39 °F 30.6 in East 2 mph 3 mph 95% 0 in 0 W/m2
07:05 40.3 °F 39 °F 30.6 in Calm     95% 0 in 0 W/m2
07:10 40.3 °F 38.7 °F 30.6 in Calm     94% 0 in 0 W/m2
07:15 40.3 °F 38.7 °F 30.6 in Calm     94% 0 in 0 W/m2
07:20 40.3 °F 38.7 °F 30.6 in Calm     94% 0 in 0 W/m2
07:25 40.3 °F 38.7 °F 30.6 in Calm   1 mph 94% 0 in 0 W/m2
07:30 40.3 °F 38.7 °F 30.6 in Calm     94% 0 in 0 W/m2
07:35 40.3 °F 38.7 °F 30.6 in Calm     94% 0 in 0 W/m2
07:41 40.3 °F 38.7 °F 30.6 in Calm   2 mph 94% 0 in 0 W/m2
07:46 40.3 °F 38.7 °F 30.6 in Calm     94% 0 in 0 W/m2
07:51 40.3 °F 38.7 °F 30.6 in Calm   2 mph 94% 0 in 0 W/m2
07:56 40.3 °F 38.7 °F 30.6 in Calm     94% 0 in 0 W/m2
08:01 40.3 °F 38.7 °F 30.6 in Calm     94% 0 in 0 W/m2
08:06 40.1 °F 38.5 °F 30.6 in Calm   2 mph 94% 0 in 0 W/m2
08:11 40.3 °F 38.7 °F 30.6 in Calm     94% 0 in 0 W/m2
08:16 40.3 °F 38.7 °F 30.6 in NNW 2 mph 2 mph 94% 0 in 0 W/m2
08:21 40.3 °F 38.7 °F 30.6 in Calm     94% 0 in 0 W/m2
08:26 40.3 °F 38.7 °F 30.6 in Calm     94% 0 in 0 W/m2
08:31 40.3 °F 38.7 °F 30.6 in Calm     94% 0 in 0 W/m2
08:36 40.3 °F 38.7 °F 30.6 in Calm     94% 0 in 5 W/m2
08:41 40.3 °F 38.7 °F 30.6 in Calm     94% 0 in 7 W/m2
08:46 40.3 °F 38.7 °F 30.6 in Calm     94% 0 in 11 W/m2
08:51 40.3 °F 38.7 °F 30.6 in Calm   2 mph 94% 0 in 12 W/m2
08:56 40.3 °F 38.7 °F 30.6 in Calm   2 mph 94% 0 in 14 W/m2
09:01 40.5 °F 38.8 °F 30.7 in NW 2 mph 2 mph 94% 0 in 18 W/m2
09:06 40.5 °F 38.8 °F 30.6 in Calm   3 mph 94% 0 in 21 W/m2
09:11 40.6 °F 39 °F 30.6 in NE 0.9 mph 2 mph 94% 0 in 25 W/m2
09:16 40.8 °F 39.2 °F 30.6 in Calm   4 mph 94% 0 in 25 W/m2
09:21 40.8 °F 39.2 °F 30.6 in Calm   1 mph 94% 0 in 30 W/m2
09:26 40.8 °F 39.2 °F 30.6 in Calm   3 mph 94% 0 in 40 W/m2
09:31 41 °F 39.4 °F 30.6 in Calm   1 mph 94% 0 in 44 W/m2
09:36 41.2 °F 39.6 °F 30.6 in North 2 mph 2 mph 94% 0 in 49 W/m2
09:41 41.2 °F 39.6 °F 30.6 in Calm     94% 0 in 53 W/m2
09:46 41.4 °F 39.7 °F 30.6 in Calm   1 mph 94% 0 in 58 W/m2
09:51 41.4 °F 39.7 °F 30.6 in Calm   2 mph 94% 0 in 56 W/m2
09:56 41.5 °F 39.7 °F 30.6 in ENE 2 mph 3 mph 93% 0 in 60 W/m2
10:01 41.5 °F 39.7 °F 30.6 in SE 2 mph 2 mph 93% 0 in 60 W/m2
10:06 41.7 °F 39.9 °F 30.6 in Calm   2 mph 93% 0 in 65 W/m2
10:11 41.7 °F 39.9 °F 30.6 in East 2 mph 3 mph 93% 0 in 70 W/m2
10:16 41.9 °F 40.1 °F 30.6 in ESE 0.9 mph 4 mph 93% 0 in 79 W/m2
10:21 42.1 °F 40.3 °F 30.6 in SE 0.9 mph 3 mph 93% 0 in 91 W/m2
10:26 42.1 °F 40.3 °F 30.6 in East 2.9 mph 5 mph 93% 0 in 79 W/m2
10:31 42.1 °F 39.9 °F 30.6 in NE 0.9 mph 2 mph 92% 0 in 77 W/m2
10:36 42.3 °F 40.5 °F 30.7 in ENE 2 mph 5 mph 93% 0 in 90 W/m2
10:41 42.3 °F 40.5 °F 30.7 in SW 0.9 mph 3 mph 93% 0 in 91 W/m2
10:46 42.4 °F 40.3 °F 30.7 in East 2 mph 4 mph 92% 0 in 90 W/m2
10:51 42.4 °F 40.3 °F 30.7 in Calm   2 mph 92% 0 in 118 W/m2
10:56 42.6 °F 40.5 °F 30.7 in ENE 2 mph 6 mph 92% 0 in 111 W/m2
11:01 43 °F 40.8 °F 30.7 in East 2 mph 3 mph 92% 0 in 146 W/m2
11:06 43.2 °F 41 °F 30.6 in NE 0.9 mph 6 mph 92% 0 in 114 W/m2
11:11 43.3 °F 40.8 °F 30.6 in ENE 2.9 mph 4 mph 91% 0 in 139 W/m2
11:16 43.3 °F 40.8 °F 30.6 in NE 4 mph 6 mph 91% 0 in 139 W/m2
11:21 43.7 °F 41.2 °F 30.6 in East 4.9 mph 7 mph 91% 0 in 171 W/m2
11:26 44.1 °F 41.4 °F 30.6 in East 2.9 mph 6 mph 90% 0 in 141 W/m2
11:31 44.1 °F 41 °F 30.6 in NE 4 mph 5 mph 89% 0 in 56 W/m2
11:36 44.2 °F 41.2 °F 30.6 in NE 2 mph 5 mph 89% 0 in 39 W/m2
11:41 44.2 °F 41.2 °F 30.6 in ENE 2 mph 5 mph 89% 0 in 53 W/m2
11:46 44.4 °F 41.2 °F 30.6 in ENE 2 mph 3 mph 88% 0 in 35 W/m2
11:51 44.6 °F 41 °F 30.6 in ESE 0.9 mph 3 mph 87% 0 in 40 W/m2
11:56 44.8 °F 40.8 °F 30.6 in ENE 2.9 mph 6 mph 86% 0 in 39 W/m2
12:01 45 °F 41 °F 30.6 in ENE 0.9 mph 7 mph 86% 0 in 58 W/m2
12:06 45.1 °F 40.8 °F 30.6 in ENE 6 mph 9 mph 85% 0 in 111 W/m2
12:11 45.3 °F 40.8 °F 30.6 in SSE 2 mph 6 mph 84% 0 in 111 W/m2
12:16 45.5 °F 40.6 °F 30.6 in SE 2 mph 9 mph 83% 0 in 100 W/m2
12:21 45.5 °F 40.6 °F 30.6 in North 2 mph 3 mph 83% 0 in 113 W/m2
12:26 45.5 °F 40.6 °F 30.6 in ESE 2 mph 5 mph 83% 0 in 104 W/m2
12:31 45.3 °F 40.5 °F 30.6 in ENE 4.9 mph 5 mph 83% 0 in 95 W/m2
12:36 45.5 °F 40.6 °F 30.6 in NE 2.9 mph 4 mph 83% 0 in 109 W/m2
12:41 45.7 °F 40.8 °F 30.6 in ESE 2 mph 4 mph 83% 0 in 120 W/m2
12:46 45.7 °F 40.8 °F 30.6 in ENE 4.9 mph 8 mph 83% 0 in 118 W/m2
12:51 45.7 °F 40.5 °F 30.6 in Calm   5 mph 82% 0 in 127 W/m2
12:56 45.7 °F 40.1 °F 30.6 in ESE 0.9 mph 5 mph 81% 0 in 165 W/m2
13:01 45.9 °F 40.3 °F 30.6 in ESE 4 mph 4 mph 81% 0 in 144 W/m2
13:06 45.9 °F 40.1 °F 30.6 in ENE 2 mph 8 mph 80% 0 in 139 W/m2
13:11 46 °F 39.9 °F 30.6 in East 6 mph 6 mph 79% 0 in 156 W/m2
13:17 46 °F 39.6 °F 30.6 in East 2.9 mph 8 mph 78% 0 in 70 W/m2
13:22 45.9 °F 39 °F 30.6 in East 6.9 mph 10 mph 77% 0 in 120 W/m2
13:27 46 °F 38.8 °F 30.6 in East 4 mph 9 mph 76% 0 in 165 W/m2
13:32 46.2 °F 39.4 °F 30.6 in ESE 2.9 mph 6 mph 77% 0 in 128 W/m2
13:37 46.6 °F 39.4 °F 30.6 in ESE 6 mph 7 mph 76% 0 in 132 W/m2
13:42 46.6 °F 39.4 °F 30.6 in ESE 4 mph 8 mph 76% 0 in 100 W/m2
13:47 46.4 °F 38.8 °F 30.6 in SE 4 mph 7 mph 75% 0 in 116 W/m2
13:52 46.2 °F 39 °F 30.6 in ENE 4 mph 9 mph 76% 0 in 141 W/m2
13:57 46.2 °F 39 °F 30.6 in East 0.9 mph 6 mph 76% 0 in 142 W/m2
14:02 46.2 °F 39 °F 30.6 in ENE 6 mph 7 mph 76% 0 in 109 W/m2
14:07 46.2 °F 39 °F 30.6 in ESE 4 mph 9 mph 76% 0 in 137 W/m2
14:12 46.2 °F 39 °F 30.6 in ESE 4 mph 6 mph 76% 0 in 134 W/m2
14:17 46.2 °F 39 °F 30.6 in East 2.9 mph 8 mph 76% 0 in 121 W/m2
14:22 46 °F 38.8 °F 30.6 in SE 2 mph 6 mph 76% 0 in 84 W/m2
14:27 45.9 °F 39 °F 30.6 in SE 4 mph 7 mph 77% 0 in 113 W/m2
14:32 45.9 °F 39 °F 30.6 in East 6 mph 7 mph 77% 0 in 111 W/m2
14:37 45.9 °F 38.7 °F 30.6 in SE 2 mph 4 mph 76% 0 in 107 W/m2
14:42 45.9 °F 38.7 °F 30.6 in ESE 2 mph 4 mph 76% 0 in 91 W/m2
14:47 45.9 °F 39 °F 30.6 in ESE 4 mph 5 mph 77% 0 in 118 W/m2
14:52 46 °F 39.2 °F 30.6 in East 2.9 mph 8 mph 77% 0 in 72 W/m2
14:57 45.9 °F 38.7 °F 30.6 in ESE 4 mph 12 mph 76% 0 in 67 W/m2
15:02 45.9 °F 38.7 °F 30.6 in ESE 4 mph 6 mph 76% 0 in 69 W/m2
15:07 45.9 °F 38.7 °F 30.6 in ESE 4 mph 10 mph 76% 0 in 72 W/m2
15:12 45.7 °F 38.5 °F 30.6 in ESE 4 mph 7 mph 76% 0 in 40 W/m2
15:17 45.3 °F 38.5 °F 30.6 in East 2.9 mph 7 mph 77% 0 in 40 W/m2
15:22 45.1 °F 38.3 °F 30.6 in East 2 mph 6 mph 77% 0 in 40 W/m2
15:27 45 °F 38.5 °F 30.6 in SE 0.9 mph 6 mph 78% 0 in 32 W/m2
15:32 44.8 °F 38.3 °F 30.6 in East 4 mph 9 mph 78% 0 in 33 W/m2
15:37 44.8 °F 38.3 °F 30.6 in East 2 mph 8 mph 78% 0 in 54 W/m2
15:42 44.8 °F 38.3 °F 30.6 in ESE 4 mph 6 mph 78% 0 in 77 W/m2
15:47 44.8 °F 38.7 °F 30.6 in SE 4 mph 8 mph 79% 0 in 74 W/m2
15:52 45 °F 38.5 °F 30.6 in ESE 6 mph 9 mph 78% 0 in 60 W/m2
15:57 45.1 °F 38.7 °F 30.6 in ENE 0.9 mph 4 mph 78% 0 in 51 W/m2
16:02 45.1 °F 38.7 °F 30.6 in ESE 6 mph 7 mph 78% 0 in 44 W/m2
16:07 45.3 °F 38.5 °F 30.6 in ENE 2 mph 7 mph 77% 0 in 40 W/m2
16:12 45.1 °F 38.3 °F 30.6 in East 6.9 mph 9 mph 77% 0 in 35 W/m2
16:17 45.1 °F 38.7 °F 30.6 in ESE 6 mph 6 mph 78% 0 in 35 W/m2
16:22 45.1 °F 38.7 °F 30.6 in ENE 9 mph 9 mph 78% 0 in 32 W/m2
16:27 45 °F 38.1 °F 30.6 in ENE 2 mph 7 mph 77% 0 in 23 W/m2
16:32 45 °F 38.1 °F 30.6 in Calm   4 mph 77% 0 in 23 W/m2
16:37 44.8 °F 38.3 °F 30.6 in East 2 mph 6 mph 78% 0 in 21 W/m2
16:42 44.6 °F 38.1 °F 30.6 in ENE 6 mph 6 mph 78% 0 in 19 W/m2
16:47 44.4 °F 37.9 °F 30.6 in East 2.9 mph 7 mph 78% 0 in 16 W/m2
16:52 44.2 °F 37.8 °F 30.6 in Calm   4 mph 78% 0 in 12 W/m2
16:57 44.2 °F 38.1 °F 30.6 in NE 4.9 mph 6 mph 79% 0 in 9 W/m2
17:02 44.2 °F 38.1 °F 30.6 in SE 2 mph 5 mph 79% 0 in 7 W/m2
17:07 44.1 °F 37.9 °F 30.6 in ESE 2 mph 5 mph 79% 0 in 5 W/m2
17:12 44.1 °F 38.3 °F 30.6 in East 6 mph 6 mph 80% 0 in 0 W/m2
17:17 43.9 °F 38.1 °F 30.6 in East 2.9 mph 7 mph 80% 0 in 0 W/m2
17:22 43.9 °F 38.1 °F 30.5 in ENE 2.9 mph 3 mph 80% 0 in 0 W/m2
17:27 43.5 °F 38.1 °F 30.5 in ENE 2 mph 5 mph 81% 0 in 0 W/m2
17:32 43.5 °F 38.1 °F 30.5 in ENE 4 mph 7 mph 81% 0 in 0 W/m2
17:37 43.3 °F 37.9 °F 30.5 in SE 6.9 mph 7 mph 81% 0 in 0 W/m2
17:42 43.3 °F 37.9 °F 30.5 in ENE 2 mph 6 mph 81% 0 in 0 W/m2
17:47 43.2 °F 37.8 °F 30.5 in East 2 mph 8 mph 81% 0 in 0 W/m2
17:52 43 °F 37.6 °F 30.5 in ESE 2.9 mph 6 mph 81% 0 in 0 W/m2
17:57 42.6 °F 37.6 °F 30.5 in East 2 mph 4 mph 82% 0 in 0 W/m2
18:02 42.4 °F 37.4 °F 30.5 in East 0.9 mph 4 mph 82% 0 in 0 W/m2
18:07 42.3 °F 37.2 °F 30.5 in ESE 2.9 mph 3 mph 82% 0 in 0 W/m2
18:12 42.1 °F 37.2 °F 30.5 in East 4 mph 7 mph 83% 0 in 0 W/m2
18:17 42.1 °F 37.2 °F 30.5 in ESE 0.9 mph 5 mph 83% 0 in 0 W/m2
18:22 41.7 °F 36.9 °F 30.5 in East 2 mph 6 mph 83% 0 in 0 W/m2
18:27 41.5 °F 37 °F 30.5 in East 2.9 mph 7 mph 84% 0 in 0 W/m2
18:32 41.5 °F 37 °F 30.5 in East 2.9 mph 9 mph 84% 0 in 0 W/m2
18:37 41.5 °F 37 °F 30.5 in ESE 2.9 mph 7 mph 84% 0 in 0 W/m2
18:42 41.4 °F 36.9 °F 30.5 in ENE 4.9 mph 8 mph 84% 0 in 0 W/m2
18:47 41.4 °F 36.9 °F 30.5 in East 2 mph 3 mph 84% 0 in 0 W/m2
18:52 41.2 °F 36.7 °F 30.5 in East 4 mph 8 mph 84% 0 in 0 W/m2
18:57 41.2 °F 36.7 °F 30.5 in East 2 mph 3 mph 84% 0 in 0 W/m2
19:02 41 °F 36.5 °F 30.5 in East 4 mph 8 mph 84% 0 in 0 W/m2
19:07 40.8 °F 36.3 °F 30.5 in East 4 mph 7 mph 84% 0 in 0 W/m2
19:12 40.6 °F 36.1 °F 30.5 in SSE 2 mph 3 mph 84% 0 in 0 W/m2
19:17 40.5 °F 36.3 °F 30.5 in Calm   3 mph 85% 0 in 0 W/m2
19:22 40.3 °F 36.1 °F 30.5 in ESE 2 mph 6 mph 85% 0 in 0 W/m2
19:27 40.3 °F 36.1 °F 30.5 in Calm   4 mph 85% 0 in 0 W/m2
19:32 39.9 °F 35.8 °F 30.5 in ESE 2 mph 8 mph 85% 0 in 0 W/m2
19:37 39.9 °F 36.1 °F 30.5 in Calm   7 mph 86% 0 in 0 W/m2
19:42 39.9 °F 35.8 °F 30.5 in Calm   8 mph 85% 0 in 0 W/m2
19:47 39.6 °F 35.8 °F 30.5 in Calm   2 mph 86% 0 in 0 W/m2
19:52 39.4 °F 35.6 °F 30.5 in Calm   3 mph 86% 0 in 0 W/m2
19:57 39 °F 35.2 °F 30.5 in ESE 2 mph 3 mph 86% 0 in 0 W/m2
20:02 39 °F 35.4 °F 30.5 in East 0.9 mph 4 mph 87% 0 in 0 W/m2
20:07 39 °F 35.4 °F 30.5 in Calm   3 mph 87% 0 in 0 W/m2
20:12 39 °F 35.4 °F 30.5 in East 0.9 mph 3 mph 87% 0 in 0 W/m2
20:17 39.2 °F 35.6 °F 30.5 in Calm     87% 0 in 0 W/m2
20:23 39 °F 35.4 °F 30.5 in Calm     87% 0 in 0 W/m2
20:28 39 °F 35.8 °F 30.5 in East 2 mph 3 mph 88% 0 in 0 W/m2
20:33 39.2 °F 36 °F 30.5 in East 0.9 mph 3 mph 88% 0 in 0 W/m2
20:38 39.4 °F 35.8 °F 30.5 in ESE 2 mph 3 mph 87% 0 in 0 W/m2
20:43 39.6 °F 36 °F 30.5 in ESE 2 mph 3 mph 87% 0 in 0 W/m2
20:48 39.6 °F 36 °F 30.5 in ESE 2 mph 4 mph 87% 0 in 0 W/m2
20:53 39.4 °F 35.8 °F 30.5 in ESE 0.9 mph 3 mph 87% 0 in 0 W/m2
20:58 39.4 °F 35.8 °F 30.5 in Calm   2 mph 87% 0 in 0 W/m2
21:03 39.2 °F 35.6 °F 30.5 in Calm     87% 0 in 0 W/m2
21:08 39 °F 35.8 °F 30.5 in Calm   2 mph 88% 0 in 0 W/m2
21:13 39 °F 35.8 °F 30.5 in Calm     88% 0 in 0 W/m2
21:18 39 °F 35.8 °F 30.5 in ESE 0.9 mph 3 mph 88% 0 in 0 W/m2
21:23 39.4 °F 36.1 °F 30.5 in ESE 2 mph 3 mph 88% 0 in 0 W/m2
21:28 39.4 °F 36.1 °F 30.5 in East 2 mph 3 mph 88% 0 in 0 W/m2
21:33 39.6 °F 36 °F 30.5 in East 2.9 mph 3 mph 87% 0 in 0 W/m2
21:38 39.6 °F 36 °F 30.5 in East 2.9 mph 4 mph 87% 0 in 0 W/m2
21:43 39.6 °F 36 °F 30.5 in ESE 0.9 mph 2 mph 87% 0 in 0 W/m2
21:48 39.6 °F 36 °F 30.5 in East 2 mph 3 mph 87% 0 in 0 W/m2
21:53 39.6 °F 36 °F 30.5 in ESE 2 mph 3 mph 87% 0 in 0 W/m2
21:58 39.7 °F 36.1 °F 30.5 in SE 0.9 mph 4 mph 87% 0 in 0 W/m2
22:03 39.7 °F 36.1 °F 30.5 in East 2 mph 4 mph 87% 0 in 0 W/m2
22:08 39.9 °F 36.3 °F 30.5 in ESE 2 mph 4 mph 87% 0 in 0 W/m2
22:13 39.9 °F 36.3 °F 30.5 in ENE 4 mph 4 mph 87% 0 in 0 W/m2
22:18 39.9 °F 36.1 °F 30.5 in ESE 2 mph 6 mph 86% 0 in 0 W/m2
22:23 39.9 °F 36.1 °F 30.5 in ESE 2.9 mph 4 mph 86% 0 in 0 W/m2
22:28 39.9 °F 36.1 °F 30.5 in East 2.9 mph 4 mph 86% 0 in 0 W/m2
22:33 39.9 °F 36.1 °F 30.5 in ESE 2.9 mph 6 mph 86% 0 in 0 W/m2
22:38 39.9 °F 36.3 °F 30.5 in ESE 2.9 mph 6 mph 87% 0 in 0 W/m2
22:43 39.9 °F 36.3 °F 30.5 in ESE 2.9 mph 4 mph 87% 0 in 0 W/m2
22:48 39.9 °F 36.3 °F 30.5 in ESE 2.9 mph 4 mph 87% 0 in 0 W/m2
22:53 39.9 °F 36.3 °F 30.5 in Calm   6 mph 87% 0 in 0 W/m2
22:58 39.9 °F 36.3 °F 30.5 in ESE 2 mph 3 mph 87% 0 in 0 W/m2
23:03 39.9 °F 36.3 °F 30.5 in ESE 2 mph 4 mph 87% 0 in 0 W/m2
23:08 39.9 °F 36.3 °F 30.5 in East 2.9 mph 9 mph 87% 0 in 0 W/m2
23:13 39.9 °F 36.3 °F 30.5 in East 2 mph 4 mph 87% 0 in 0 W/m2
23:18 39.9 °F 36.3 °F 30.5 in ESE 6 mph 8 mph 87% 0 in 0 W/m2
23:23 39.9 °F 36.3 °F 30.5 in ESE 2.9 mph 4 mph 87% 0 in 0 W/m2
23:28 39.9 °F 36.3 °F 30.5 in ESE 2 mph 6 mph 87% 0 in 0 W/m2
23:33 39.9 °F 36.1 °F 30.5 in ESE 2.9 mph 6 mph 86% 0 in 0 W/m2
23:38 40.1 °F 36.3 °F 30.5 in East 2 mph 3 mph 86% 0 in 0 W/m2
23:43 40.1 °F 36.3 °F 30.5 in East 2 mph 7 mph 86% 0 in 0 W/m2
23:48 40.1 °F 36.3 °F 30.5 in ESE 4 mph 5 mph 86% 0 in 0 W/m2
23:53 40.1 °F 36.3 °F 30.5 in ESE 2.9 mph 4 mph 86% 0 in 0 W/m2
23:58 40.1 °F 36.3 °F 30.5 in East 0.9 mph 3 mph 86% 0 in 0 W/m2
Juneau County Weather
Compliments of Weather Underground - 4 mb